Location: Seven Kings
(51.5667°N, 0.1000°E)
Time: 11:10:35
(UTC+00:00)

NOAA 11 - Pass Details

Date: 29 October 2020
Orbit: 833 x 850 km, 98.4° (Epoch: 24 November)

Event Time Altitude Azimuth Distance (km) Brightness Sun altitude
Rises 17:20:00 0° 154° (SSE) 3,382 7.2 -7.2°
Reaches altitude 10° 17:22:22 10° 152° (SSE) 2,449 6.5 -7.6°
Maximum altitude 17:27:45 69° 70° (ENE) 899 4.2 -8.4°
Drops below altitude 10° 17:33:10 10° 349° (N) 2,458 6.6 -9.2°
Sets 17:35:32 0° 347° (NNW) 3,395 7.4 -9.6°
